www.pogodaiklimat.ru

Погода и климат >> Архив погоды >> Россия >> Якутия >> Столб Остров


ПОГОДА на Столб Острове

  • Прогноз погоды на Столб Острове
  • Монитор погоды на Столб Острове
  • Климат города

АРХИВ ПОГОДЫ на Столб Острове

Время (UTC), дата Ветер
(напр.,м/с)
 
Видим.   Явления Облачность Т
(С)
Тd
(С)
f
(%)
Тe
(С)
Тes
(С)
Комфортность P
(гПа)
Po
(гПа)
Тmin
(С)
Tmax
(С)
R
(мм)
R24
(мм)
S
(см)
03 19.02 З 6 10 км слабый снег {метель} 10/10 600 м
[Sc]
-24.2 -25.4 90 -36 -36 опасность
обморожения
1018.0 1015.3
06 19.02 З 7 10 км слабый снег {метель} 10/10 600 м
[Sc]
-24.3 -25.5 90 -37 -37 опасность
обморожения
1016.5 1013.8
09 19.02 З 6 10 км слабый снег {метель} 10/10 600 м
[Sc]
-22.2 -23.5 89 -34 -34 опасность
обморожения
1015.9 1013.2
12 19.02 З 7 10 км слабый снег {метель} 10/10 600 м
[Sc]
-22.0 -23.3 89 -34 -34 опасность
обморожения
1015.1 1012.4 -21.8 1
15 19.02 ЮЗ 7 10 км слабый снег {метель} 10/10 600 м
[Sc]
-21.9 -23.2 89 -34 -34 опасность
обморожения
1013.8 1011.1
18 19.02 ЮЗ 8-10
{11}
20 км позёмок {снег, метель} ясно -22.7 -24.6 84 -36 -36 опасность
обморожения
1012.7 1010.0
21 19.02 ЮЗ 7
{13}
20 км позёмок {метель} ясно -22.7 -23.9 90 -35 -35 опасность
обморожения
1011.3 1008.6
00 20.02 З 8
{13}
10 км слабый снег {метель} 10/10 600 м
[Sc]
-20.3 -21.5 90 -33 -33 опасность
обморожения
1008.8 1006.1 -23.1 0.5 11
03 20.02 ЮЗ 8-10
{14}
2000 м слабый снег {метель} 10/10 600 м
[Sc]
-20.0 -21.2 90 -32 -32 опасность
обморожения
1005.5 1002.8
06 20.02 З 10-11
{15}
1000 м слабый снег {метель} 10/10 600 м
[Sc]
-18.9 -20.1 90 -32 -32 опасность
обморожения
1001.8 999.2
09 20.02 З 9-10
{15}
1000 м слабый снег {метель} 10/10 600 м
[Sc]
-17.6 -18.2 95 -30 -30 998.6 996.0
12 20.02 ЮЗ 8
{15}
2000 м слабый снег {метель} 10/10 600 м
[Sc]
-17.0 -18.2 90 -29 -29 997.0 994.4 -16.4 2
15 20.02 ЮЗ 6
{15}
10 км слабый снег {метель} 10/10 600 м
[Sc]
-17.4 -18.6 90 -28 -28 996.8 994.2
18 20.02 Ю 6
{12}
10 км слабый снег {метель} 10/10 600 м
[Sc]
-18.6 -19.2 95 -29 -29 997.5 994.9
21 20.02 Ю 11-13
{14}
4000 м слабый снег {метель} 10/10 600 м
[Sc]
-20.8 -21.4 95 -35 -35 опасность
обморожения
998.3 995.6
00 21.02 Ю 13-15
{17}
1000 м слабый снег {метель} 10/10 600 м
[Sc]
-21.9 -22.5 95 -38 -38 опасность
обморожения
999.9 997.2 -21.9 2 12
03 21.02 Ю 13-15
{17}
1000 м слабый снег {метель} 10/10 600 м
[Sc]
-23.2 -23.8 95 -39 -39 опасность
обморожения
1001.2 998.5 -23.2
06 21.02 Ю 12-15
{16}
1000 м слабый снег {метель} 10/10 1000 м
[Sc]
-24.2 -24.8 95 -40 -40 опасность
обморожения
1003.2 1000.5
09 21.02 Ю 15-17
{18}
1000 м метель {снег} 10/0
[Ci fib]
-25.6 -26.3 94 -44 -44 опасность
обморожения
1004.8 1002.1
12 21.02 Ю 15-17
{19}
1000 м метель {снег} ясно -26.7 -27.9 90 -45 -45 опасность
обморожения
1007.0 1004.3 -21.6 2
15 21.02 Ю 16-18
{19}
1000 м метель ясно -27.7 -28.9 89 -47 -47 опасность
обморожения
1009.8 1007.1
18 21.02 ЮВ 11-15
{19}
4000 м метель ясно -28.0 -29.2 89 -45 -45 опасность
обморожения
1013.0 1010.2
21 21.02 ЮВ 12-16
{18}
4000 м метель ясно -28.0 -29.2 89 -45 -45 опасность
обморожения
1016.4 1013.6
00 22.02 Ю 11-15
{18}
4000 м метель ясно -28.2 -29.4 89 -45 -45 опасность
обморожения
1019.5 1016.7 -28.5 12
03 22.02 ЮВ 7-12
{15}
50 км позёмок {метель} ясно -27.6 -28.7 90 -41 -41 опасность
обморожения
1022.3 1019.5
06 22.02 ЮВ 2
{12}
50 км {метель} ясно -27.0 -28.2 89 -34 -34 опасность
обморожения
1024.6 1021.8
09 22.02 ЮВ 2 50 км ясно -28.8 -30.6 84 -36 -36 опасность
обморожения
1026.6 1023.8
12 22.02 штиль 0 50 км ясно -29.8 -32.2 80 -30 -30 1028.1 1026.3 -26.3
15 22.02 штиль 0 50 км ясно -31.8 -34.1 80 -32 -32 опасность
обморожения
1029.0 1026.2
18 22.02 штиль 0 50 км [диам. изморози 0 мм] ясно -32.7 -35.1 79 -33 -33 опасность
обморожения
1029.6 1026.7
21 22.02 штиль 0 50 км [диам. изморози 0 мм] ясно -31.6 -33.3 85 -32 -32 опасность
обморожения
1031.6 1028.7
00 23.02 З 2 50 км [диам. изморози 0 мм] 10/0
[Ac trans]
-30.8 -32.6 84 -38 -38 опасность
обморожения
1032.5 1029.6 -33.3 13
03 23.02 З 5 50 км 10/0
[Ac und Cs]
-27.6 -30.0 80 -40 -39 опасность
обморожения
1032.8 1030.0
06 23.02 З 5 50 км 10/0
[Ac und Cs]
-26.8 -30.0 74 -39 -38 опасность
обморожения
1033.1 1030.3
09 23.02 ЮЗ 4 50 км 10/0
[Ac und Cs]
-27.2 -30.3 75 -38 -38 опасность
обморожения
1033.9 1031.1
12 23.02 З 5 50 км 10/0
[Cs]
-26.3 -29.4 75 -38 -38 опасность
обморожения
1034.3 1031.5 -25.9
15 23.02 ЮЗ 4 10 км слабый снег 10/0
[Ac und]
-27.0 -28.2 89 -38 -38 опасность
обморожения
1034.1 1031.3
18 23.02 ЮЗ 4 10 км слабый снег 10/0
[Ac und]
-26.6 -27.7 90 -37 -37 опасность
обморожения
1033.6 1030.8
21 23.02 ЮЗ 5 50 км {снег} 10/0
[Ac und]
-24.9 -25.6 94 -36 -36 опасность
обморожения
1033.0 1030.2
00 24.02 ЮЗ 5 4000 м дымка {снег} [диам. изморози 0 мм] 10/10 600 м
[Sc]
-22.4 -23.0 95 -33 -33 опасность
обморожения
1032.2 1029.4 -28.5 0.3 13
03 24.02 ЮЗ 3 4000 м дымка 10/10 600 м
[Sc]
-22.4 -23.0 95 -30 -30 1031.6 1028.8
06 24.02 ЮЗ 1 20 км [диам. изморози 0 мм] 10/0
[Ac und]
-21.7 -22.3 95 -25 -25 1030.8 1028.1
09 24.02 Ю 2 10 км слабый снег 10/10 1000 м
[Sc]
-22.5 -23.1 95 -29 -29 1031.1 1028.3
12 24.02 ЮВ 3 10 км слабый снег 10/10 1000 м
[Sc]
-21.8 -23.0 90 -30 -30 1030.7 1028.0 -21.0 0.6
15 24.02 Ю 2 10 км слабый снег 6/6 1000 м
[Sc]
-23.5 -24.7 90 -30 -30 1031.1 1028.3
18 24.02 Ю 5 50 км {снег} ясно -28.5 -28.4 100 -41 -41 опасность
обморожения
1031.3 1028.5
21 24.02 ЮВ 7
{10}
20 км позёмок {метель} ясно -27.6 -28.7 90 -41 -41 опасность
обморожения
1032.6 1029.8
00 25.02 ЮВ 6 50 км позёмок {метель} ясно -28.4 -29.6 89 -42 -42 опасность
обморожения
1034.5 1031.7 -28.6 0.3 13
03 25.02 штиль 0 50 км {метель} ясно -27.3 -28.5 89 -27 -27 1036.1 1033.3
06 25.02 ЮВ 6 50 км позёмок {метель} ясно -27.7 -28.9 89 -41 -41 опасность
обморожения
1037.6 1034.8
09 25.02 ЮВ 6 50 км позёмок {метель} ясно -27.9 -29.1 89 -41 -41 опасность
обморожения
1039.2 1036.4
12 25.02 ЮВ 2 50 км {метель} ясно -27.5 -29.3 85 -35 -35 опасность
обморожения
1040.7 1037.9 -27.0
15 25.02 штиль 0 50 км 3/0
[Ci fib]
-30.5 -32.4 83 -31 -31 опасность
обморожения
1041.8 1038.9
18 25.02 СЗ 1 50 км 3/0
[Ci fib]
-30.8 -32.6 84 -35 -35 опасность
обморожения
1042.1 1039.2
21 25.02 штиль 0 50 км ясно -31.6 -33.3 85 -32 -32 опасность
обморожения
1042.4 1039.5

 

Местоположение метеостанции Столб Остров (Якутия, Россия): широта 72.40 долгота 126.30 высота над уровнем моря 20 м.

В архиве по умолчанию представлена погода на Столб Острове за последнюю неделю. Архивные данные за месяц целиком и за предыдущие месяцы, начиная с января 2011 года, Вы можете получить, выбрав интересующий диапазон дат из раскрывающегося списка и нажав кнопку "Ввод!".

Внимание! Время в таблицах - всемирное. Для получения местного времени необходимо прибавить поправку, которая на Столб Острове равна 9 ч.

Смотрите также архив погоды в соседних городах и на ближайших метеорологических станциях:

Погода на Мысе Быков (Якутия, Россия) (105 км)
Погода в Тюмяти (Якутия, Россия) (109 км)
Погода в Тикси (Якутия, Россия) (128 км)
Погода в Кюсюре (Якутия, Россия) (195 км)
Погода в Усть-Оленеке (Якутия, Россия) (225 км)
Погода в Юбилейной (Якутия, Россия) (392 км)
Погода в Джарджане (Якутия, Россия) (417 км)
Погода в Саскылахе (Якутия, Россия) (421 км)
Погода в Усть-Куйге (Якутия, Россия) (426 км)
Погода в Анабаре (Якутия, Россия) (430 км)

Пояснения к столбцам:

Ветер - указаны скорость ветра в м/с - средняя за 10 мин, порывы в срок и между сроками (в фигурных скобках) и направление, откуда дует ветер: С - северный, СВ - северо-восточный, В - восточный, ЮВ - юго-восточный, Ю - южный, ЮЗ - юго-западный, З - западный, СЗ - северо-западный.
Видимость - горизонтальная дальность видимости в метрах или километрах. При видимости от 1 до 10 км при отсутствии осадков обычно наблюдается дымка, при ухудшении видимости до 1 км и менее - туман. В сухую погоду видимость может ухудшаться дымом, пылью или мглою.
Явления - указаны атмосферные явления, наблюдавшиеся в срок или в последний час перед сроком; фигурными скобками обозначены явления, наблюдавшиеся между сроками (за 1-3 часа до срока); квадратными скобками обозначены град или гололедные отложения с указанием их диаметра в мм.
Облачность - указаны через наклонную черту общая и нижняя облачность в баллах и высота нижней границы облаков в метрах; квадратными скобками обозначены формы облаков: Ci - перистые, Cs - перисто-слоистые, Cc - перисто-кучевые, Ac - высококучевые, As - высокослоистые, Sc - слоисто-кучевые, Ns - слоисто-дождевые, Cu - кучевые, Cb - кучево-дождевые. Подробнее классификацию облаков см. в Атласе облаков (PDF).
T - Температура воздуха - температура, измеренная на высоте 2 м над землей.
Td - Температура точки росы - температура, при понижении до которой содержащийся в воздухе водяной пар достигнет насыщения.
f - Относительная влажность воздуха - влажноcть воздуха, измеренная на высоте 2 м над землей.
Te - Эффективная температура - температура, которую ощущает одетый по сезону человек в тени. Характеристика душности погоды. При расчете учитывается влияние влажности воздуха и скорости ветра на теплоощущения человека.
Tes - Эффективная температура на солнце - температура, которую ощущает человек, с поправкой на солнечный нагрев. Характеристика знойности погоды. Зависит от высоты солнца над горизонтом, облачности и скорости ветра. Ночью, в пасмурную погоду, а также при ветре 12 м/с и более поправка равна нулю.
P - Атмосферное давление - приведенное к уровню моря атмосферное давление.
Po - Атмосферное давление - измеренное на уровне метеостанции атмосферное давление.
Tmin - Минимальная температура - минимум температуры воздуха на высоте 2 м над землей.
Tmax - Максимальная температура - максимум температуры воздуха на высоте 2 м над землей.
R - Количество осадков - Количество выпавших осадков за период времени, мм. При наведении курсора мыши на число - период времени, за который выпало указанное количество осадков.
R24 - Количество осадков - Количество выпавших осадков за 24 часа, мм.
S - Снежный покров - Высота снежного покрова, см. При наведении курсора мыши на число - состояние снежного покрова и степень покрытия местности в баллах.